EW9130 Weather Reports


time (UTC)temp
C
wind
direction
speed
KPH
gust
KPH
rain 1hr
cm
rain 24hr
cm
rain mn
cm
humidity
%
barometer
mb
20260510060046 10 360 0.0 0.0 0.00 0.00 0.00 74 1016.0
20260510055535 10 360 0.0 0.0 0.00 0.00 0.00 74 1015.9
20260510055035 10 360 0.0 0.0 0.00 0.00 0.00 74 1015.9
20260510054535 10 360 0.0 0.0 0.00 0.00 0.00 75 1015.9
20260510054034 10 360 0.0 0.0 0.00 0.00 0.00 75 1015.9
20260510053535 10 360 0.0 0.0 0.00 0.00 0.00 75 1015.8
20260510053034 10 360 0.0 0.0 0.00 0.00 0.00 75 1015.8
20260510052534 10 360 0.0 0.0 0.00 0.00 0.00 76 1015.8
20260510052034 10 360 0.0 0.0 0.00 0.00 0.00 76 1015.7
20260510051541 10 360 0.0 0.0 0.00 0.00 0.00 78 1015.6
20260510051035 10 360 0.0 0.0 0.00 0.00 0.00 77 1015.6
20260510050531 10 360 0.0 0.0 0.00 0.00 0.00 77 1015.6
20260510050031 10 360 0.0 0.0 0.00 0.00 0.00 75 1015.7
20260510045534 10 360 0.0 0.0 0.00 0.00 0.00 75 1015.6
20260510045030 10 360 0.0 0.0 0.00 0.00 0.00 74 1015.6
20260510044527 11 360 0.0 0.0 0.00 0.00 0.00 73 1015.7
20260510044030 11 360 0.0 0.0 0.00 0.00 0.00 73 1015.8
20260510043525 11 360 0.0 0.0 0.00 0.00 0.00 73 1015.7
20260510043024 11 360 0.0 0.0 0.00 0.00 0.00 71 1015.7
20260510042523 11 360 0.0 0.0 0.00 0.00 0.00 72 1015.7
20260510042022 12 360 0.0 0.0 0.00 0.00 0.00 71 1015.7
20260510041528 12 360 0.0 0.0 0.00 0.00 0.00 71 1015.8
20260510041022 12 360 0.0 0.0 0.00 0.00 0.00 70 1015.7
20260510040522 12 360 0.0 0.0 0.00 0.00 0.00 70 1015.7
20260510040021 12 360 0.0 0.0 0.00 0.00 0.00 70 1015.7
20260510035520 12 360 0.0 0.0 0.00 0.00 0.00 69 1015.7
20260510035022 12 360 0.0 0.0 0.00 0.00 0.00 69 1015.6
20260510034519 12 360 0.0 0.0 0.00 0.00 0.00 70 1015.5
20260510034019 12 360 0.0 0.0 0.00 0.00 0.00 69 1015.5
20260510033517 12 360 0.0 0.0 0.00 0.00 0.00 69 1015.5
20260510033017 13 360 0.0 0.0 0.00 0.00 0.00 68 1015.4
20260510032517 13 360 0.0 0.0 0.00 0.00 0.00 67 1015.4
20260510032016 13 360 0.0 0.0 0.00 0.00 0.00 66 1015.3
20260510031515 13 360 0.0 0.0 0.00 0.00 0.00 66 1015.2
20260510031014 13 360 0.0 0.0 0.00 0.00 0.00 66 1015.1
20260510030514 13 360 0.0 0.0 0.00 0.00 0.00 66 1015.1
20260510030014 13 360 0.0 0.0 0.00 0.00 0.00 66 1014.9
20260510025513 13 360 0.0 0.0 0.00 0.00 0.00 65 1015.0
20260510025016 13 360 0.0 0.0 0.00 0.00 0.00 64 1014.7
20260510024513 14 360 0.0 0.0 0.00 0.00 0.00 64 1014.7
20260510024011 14 360 0.0 0.0 0.00 0.00 0.00 64 1014.5
20260510023511 14 360 0.0 0.0 0.00 0.00 0.00 63 1014.6
20260510023029 15 360 0.0 0.0 0.00 0.00 0.00 63 1014.6
20260510022510 15 360 0.0 0.0 0.00 0.00 0.00 61 1014.5
20260510022009 15 360 0.0 0.0 0.00 0.00 0.00 59 1014.4
20260510021508 16 360 0.0 0.0 0.00 0.00 0.00 54 1014.2
20260510021007 16 360 0.0 0.0 0.00 0.00 0.00 54 1014.1
20260510020507 16 360 0.0 0.0 0.00 0.00 0.00 54 1014.0
20260510020007 16 360 0.0 0.0 0.00 0.00 0.00 54 1013.9
20260510015505 16 360 0.0 0.0 0.00 0.00 0.00 53 1013.9
20260510015005 16 360 0.0 0.0 0.00 0.00 0.00 53 1013.7
20260510014505 16 360 0.0 0.0 0.00 0.00 0.00 52 1013.7
20260510014005 16 360 0.0 0.0 0.00 0.00 0.00 51 1013.7
20260510013509 16 360 0.0 0.0 0.00 0.00 0.00 50 1013.7
20260510013011 16 360 0.0 0.0 0.00 0.00 0.00 50 1013.6
20260510012505 17 360 0.0 0.0 0.00 0.00 0.00 50 1013.7
20260510012004 16 360 0.0 0.0 0.00 0.00 0.00 50 1013.7
20260510011511 16 360 0.0 0.0 0.00 0.00 0.00 49 1013.6
20260510011010 17 360 0.0 0.0 0.00 0.00 0.00 49 1013.7
20260510010504 17 360 0.0 0.0 0.00 0.00 0.00 49 1013.7
20260510010011 17 360 0.0 0.0 0.00 0.00 0.00 48 1013.7
20260510005503 17 360 0.0 0.0 0.00 0.00 0.00 48 1013.7
20260510005003 17 360 0.0 0.0 0.00 0.00 0.00 47 1013.7
20260510004505 17 360 0.0 0.0 0.00 0.00 0.00 47 1013.6
20260510004003 17 360 0.0 0.0 0.00 0.00 0.00 48 1013.6
20260510003501 18 360 0.0 0.0 0.00 0.00 0.00 48 1013.5
20260510003001 18 360 0.0 0.0 0.00 0.00 0.00 48 1013.6
20260510002602 18 360 0.0 0.0 0.00 0.00 0.00 48 1013.5
20260510002059 17 360 0.0 0.0 0.00 0.00 0.00 50 1013.5
20260510001600 17 360 0.0 0.0 0.00 0.00 0.00 50 1013.5
20260510001059 17 360 0.0 0.0 0.00 0.00 0.00 52 1013.5
20260510000559 17 360 0.0 0.0 0.00 0.00 0.00 52 1013.5
20260510000059 17 360 0.0 0.0 0.00 0.00 0.00 52 1013.4
20260509235557 17 360 0.0 0.0 0.00 0.00 0.00 53 1013.4
20260509235056 17 360 0.0 0.0 0.00 0.00 0.00 52 1013.3
20260509234603 17 360 0.0 0.0 0.00 0.00 0.00 52 1013.3
20260509234056 17 360 0.0 0.0 0.00 0.00 0.00 53 1013.3
20260509233554 17 360 0.0 0.0 0.00 0.00 0.00 53 1013.2
20260509233102 17 360 0.0 0.0 0.00 0.00 0.00 53 1013.2
20260509232554 17 360 0.0 0.0 0.00 0.00 0.00 52 1013.1
20260509232054 17 360 0.0 0.0 0.00 0.00 0.00 52 1013.2
20260509231603 17 360 0.0 0.0 0.00 0.00 0.00 53 1013.2
20260509231053 17 360 0.0 0.0 0.00 0.00 0.00 54 1013.1
20260509230555 17 360 0.0 0.0 0.00 0.00 0.00 54 1013.2
20260509230055 17 360 0.0 0.0 0.00 0.00 0.00 53 1013.1
20260509225554 17 360 0.0 0.0 0.00 0.00 0.00 52 1013.1
20260509225056 17 360 0.0 0.0 0.00 0.00 0.00 52 1013.1
20260509224552 17 360 0.0 0.0 0.00 0.00 0.00 52 1013.1
20260509224051 17 360 0.0 0.0 0.00 0.00 0.00 52 1013.0
20260509223550 18 360 0.0 0.0 0.00 0.00 0.00 51 1013.0
20260509223050 18 360 0.0 0.0 0.00 0.00 0.00 50 1013.0
20260509222551 18 360 0.0 0.0 0.00 0.00 0.00 48 1012.9
20260509222049 18 360 0.0 0.0 0.00 0.00 0.00 49 1012.8
20260509221547 18 360 0.0 0.0 0.00 0.00 0.00 50 1012.8
20260509221047 17 360 0.0 1.6 0.00 0.00 0.00 50 1012.9
20260509220547 17 360 0.0 1.6 0.00 0.00 0.00 52 1012.9
20260509220048 17 360 0.0 1.6 0.00 0.00 0.00 53 1012.9
20260509215546 16 360 0.0 3.2 0.00 0.00 0.00 53 1012.9
20260509215050 16 360 0.0 3.2 0.00 0.00 0.00 54 1012.9
20260509214547 17 360 0.0 4.8 0.00 0.00 0.00 53 1012.8
20260509214046 17 360 0.0 4.8 0.00 0.00 0.00 54 1012.8
20260509213545 17 360 0.0 3.2 0.00 0.00 0.00 54 1012.7
20260509213059 17 360 0.0 3.2 0.00 0.00 0.00 55 1012.8
20260509212544 17 360 0.0 1.6 0.00 0.00 0.00 54 1012.7
20260509212044 17 360 0.0 0.0 0.00 0.00 0.00 51 1012.7
20260509211609 17 360 0.0 0.0 0.00 0.00 0.00 51 1012.7
20260509211044 17 360 0.0 3.2 0.00 0.00 0.00 52 1012.6
20260509210544 17 360 0.0 1.6 0.00 0.00 0.00 53 1012.6
20260509210044 17 360 0.0 1.6 0.00 0.00 0.00 54 1012.6
20260509205544 17 360 0.0 1.6 0.00 0.00 0.00 55 1012.7
20260509205043 17 360 0.0 1.6 0.00 0.00 0.00 53 1012.8
20260509204557 17 360 0.0 1.6 0.00 0.00 0.00 52 1012.8
20260509204043 18 360 0.0 3.2 0.00 0.00 0.00 52 1012.7
20260509203543 17 360 0.0 3.2 0.00 0.00 0.00 53 1012.6
20260509203049 17 360 0.0 3.2 0.00 0.00 0.00 53 1012.6
20260509202544 17 360 0.0 4.8 0.00 0.00 0.00 52 1012.6
20260509202041 17 360 0.0 4.8 0.00 0.00 0.00 52 1012.5
20260509201540 17 360 0.0 3.2 0.00 0.00 0.00 51 1012.5
20260509201040 17 360 0.0 3.2 0.00 0.00 0.00 51 1012.5
20260509200540 17 360 0.0 3.2 0.00 0.00 0.00 50 1012.5
20260509200040 17 360 0.0 3.2 0.00 0.00 0.00 51 1012.5
20260509195540 17 360 0.0 3.2 0.00 0.00 0.00 48 1012.5
20260509195039 17 360 0.0 3.2 0.00 0.00 0.00 51 1012.6
20260509194542 17 360 0.0 3.2 0.00 0.00 0.00 49 1012.5
20260509194038 17 360 0.0 1.6 0.00 0.00 0.00 50 1012.5
20260509193539 17 360 0.0 0.0 0.00 0.00 0.00 52 1012.5
20260509193035 17 360 0.0 1.6 0.00 0.00 0.00 51 1012.6
20260509192537 16 360 0.0 1.6 0.00 0.00 0.00 52 1012.6
20260509192035 16 360 0.0 1.6 0.00 0.00 0.00 57 1012.8
20260509191535 15 360 0.0 1.6 0.00 0.00 0.00 60 1012.7
20260509191035 15 360 0.0 0.0 0.00 0.00 0.00 63 1012.8
20260509190535 14 360 0.0 1.6 0.00 0.00 0.00 64 1012.8
20260509190044 14 360 0.0 1.6 0.00 0.00 0.00 63 1012.9
20260509185534 14 360 0.0 0.0 0.00 0.00 0.00 62 1013.0
20260509185034 15 360 0.0 0.0 0.00 0.00 0.00 63 1013.0
20260509184532 15 0.0 0.0 0.00 0.00 0.00 63 1012.9
20260509184031 15 0.0 0.0 0.00 0.00 0.00 62 1012.9
20260509183533 15 0.0 0.0 0.00 0.00 0.00 63 1012.9
20260509183030 15 0.0 0.0 0.00 0.00 0.00 62 1012.8
20260509182526 15 0.0 0.0 0.00 0.00 0.00 63 1012.9
20260509182025 15 0.0 0.0 0.00 0.00 0.00 63 1013.0
20260509181524 15 0.0 0.0 0.00 0.00 0.00 65 1013.0
20260509181023 14 0.0 0.0 0.00 0.00 0.00 67 1013.0
20260509180521 14 0.0 0.0 0.00 0.00 0.00 67 1012.9
20260509180019 14 0.0 0.0 0.00 0.00 0.00 68 1012.9
20260509175519 14 0.0 0.0 0.00 0.00 0.00 68 1012.9
20260509175017 14 0.0 0.0 0.00 0.00 0.00 67 1012.8
20260509174515 15 0.0 0.0 0.00 0.00 0.00 65 1012.8
20260509174013 15 0.0 0.0 0.00 0.00 0.00 65 1012.8
20260509173511 15 0.0 0.0 0.00 0.00 0.00 67 1012.8
20260509173012 15 0.0 0.0 0.00 0.00 0.00 66 1012.8
20260509172509 15 0.0 0.0 0.00 0.00 0.00 68 1012.9
20260509172008 14 0.0 0.0 0.00 0.00 0.00 67 1012.8
20260509171506 15 0.0 0.0 0.00 0.00 0.00 64 1012.8
20260509171005 15 0.0 0.0 0.00 0.00 0.00 65 1012.8
20260509170504 14 0.0 0.0 0.00 0.00 0.00 69 1012.9
20260509170003 13 0.0 0.0 0.00 0.00 0.00 69 1012.9
20260509165503 13 0.0 0.0 0.00 0.00 0.00 67 1012.9
20260509165059 13 0.0 0.0 0.00 0.00 0.00 66 1012.9
20260509164558 13 0.0 0.0 0.00 0.00 0.00 68 1012.8
20260509164057 13 0.0 0.0 0.00 0.00 0.00 68 1012.7
20260509163558 13 0.0 0.0 0.00 0.00 0.00 69 1012.6
20260509163100 13 0.0 0.0 0.00 0.00 0.00 69 1012.6
20260509162553 13 0.0 0.0 0.00 0.00 0.00 70 1012.6
20260509162050 13 0.0 0.0 0.00 0.00 0.00 69 1012.5
20260509161549 13 0.0 0.0 0.00 0.00 0.00 69 1012.4
20260509161048 13 0.0 0.0 0.00 0.00 0.00 68 1012.4
20260509160547 13 0.0 0.0 0.00 0.00 0.00 68 1012.3
20260509160045 13 0.0 0.0 0.00 0.00 0.00 67 1012.4
20260509155545 13 0.0 0.0 0.00 0.00 0.00 67 1012.3
20260509155045 13 0.0 0.0 0.00 0.00 0.00 66 1012.2
20260509154541 13 0.0 0.0 0.00 0.00 0.00 65 1012.2
20260509154039 13 0.0 0.0 0.00 0.00 0.00 64 1012.1
20260509153538 13 0.0 0.0 0.00 0.00 0.00 63 1012.0
20260509153036 14 0.0 0.0 0.00 0.00 0.00 63 1012.0
20260509152537 14 0.0 0.0 0.00 0.00 0.00 62 1011.9
20260509152034 14 0.0 0.0 0.00 0.00 0.00 62 1011.9
20260509151532 14 0.0 0.0 0.00 0.00 0.00 62 1011.9
20260509151030 14 0.0 0.0 0.00 0.00 0.00 65 1011.8
20260509150533 13 0.0 0.0 0.00 0.00 0.00 67 1011.7
20260509150028 13 0.0 0.0 0.00 0.00 0.00 67 1011.6
20260509145527 13 0.0 0.0 0.00 0.00 0.00 67 1011.6
20260509145025 13 0.0 0.0 0.00 0.00 0.00 68 1011.6
20260509144524 13 0.0 0.0 0.00 0.00 0.00 68 1011.6
20260509144023 13 0.0 0.0 0.00 0.00 0.00 69 1011.5
20260509143521 13 0.0 0.0 0.00 0.00 0.00 69 1011.5
20260509143023 13 0.0 0.0 0.00 0.00 0.00 69 1011.4
20260509142517 13 0.0 0.0 0.00 0.00 0.00 69 1011.4
20260509142016 12 0.0 0.0 0.00 0.00 0.00 70 1011.4
20260509141517 12 0.0 0.0 0.00 0.00 0.00 71 1011.3
20260509141013 12 0.0 0.0 0.00 0.00 0.00 70 1011.3
20260509140511 12 0.0 0.0 0.00 0.00 0.00 71 1011.2
20260509140010 12 0.0 0.0 0.00 0.00 0.00 71 1011.3
20260509135508 12 0.0 0.0 0.00 0.00 0.00 71 1011.2
20260509135007 12 0.0 0.0 0.00 0.00 0.00 71 1011.1
20260509134505 12 0.0 0.0 0.00 0.00 0.00 70 1011.1
20260509134004 12 0.0 0.0 0.00 0.00 0.00 70 1011.1
20260509133502 12 0.0 0.0 0.00 0.00 0.00 72 1011.0
20260509133001 12 0.0 0.0 0.00 0.00 0.00 71 1010.9
20260509132600 12 0.0 0.0 0.00 0.00 0.00 72 1010.9
20260509132059 12 0.0 0.0 0.00 0.00 0.00 72 1010.8
20260509131556 12 0.0 0.0 0.00 0.00 0.00 72 1010.8
20260509131058 12 0.0 0.0 0.00 0.00 0.00 72 1010.8
20260509130554 12 0.0 0.0 0.00 0.00 0.00 72 1010.7
20260509130052 12 0.0 0.0 0.00 0.00 0.00 72 1010.6
20260509125550 12 0.0 0.0 0.00 0.00 0.00 71 1010.5
20260509125049 12 0.0 0.0 0.00 0.00 0.00 71 1010.4
20260509124555 12 0.0 0.0 0.00 0.00 0.00 71 1010.3
20260509124047 12 0.0 0.0 0.00 0.00 0.00 71 1010.2
20260509123547 12 0.0 0.0 0.00 0.00 0.00 71 1010.0
20260509123046 12 0.0 0.0 0.00 0.00 0.00 71 1009.9
20260509122541 12 0.0 0.0 0.00 0.00 0.00 71 1009.9
20260509122044 12 0.0 0.0 0.00 0.00 0.00 70 1009.8
20260509121541 12 0.0 0.0 0.00 0.00 0.00 71 1009.6
20260509121039 12 0.0 0.0 0.00 0.00 0.00 70 1009.5
20260509120536 12 0.0 0.0 0.00 0.00 0.00 70 1009.4
20260509120036 12 0.0 0.0 0.00 0.00 0.00 70 1009.3
20260509115533 12 0.0 0.0 0.00 0.00 0.00 70 1009.2
20260509115032 12 0.0 0.0 0.00 0.00 0.00 69 1009.2
20260509114534 12 0.0 0.0 0.00 0.00 0.00 69 1009.1
20260509114032 12 0.0 0.0 0.00 0.00 0.00 70 1009.0
20260509113528 12 0.0 0.0 0.00 0.00 0.00 69 1009.0
20260509113026 12 0.0 0.0 0.00 0.00 0.00 69 1008.9
20260509112524 12 0.0 0.0 0.00 0.00 0.00 69 1008.8
20260509112023 12 0.0 0.0 0.00 0.00 0.00 69 1008.8
20260509111521 12 0.0 0.0 0.00 0.00 0.00 69 1008.7
20260509111020 12 0.0 0.0 0.00 0.00 0.00 68 1008.6
20260509110519 12 0.0 0.0 0.00 0.00 0.00 68 1008.6
20260509110017 12 0.0 0.0 0.00 0.00 0.00 67 1008.4
20260509105518 13 0.0 0.0 0.00 0.00 0.00 66 1008.4
20260509105014 13 0.0 0.0 0.00 0.00 0.00 65 1008.3
20260509104513 13 0.0 0.0 0.00 0.00 0.00 65 1008.2
20260509104011 13 0.0 0.0 0.00 0.00 0.00 64 1008.2
20260509103509 13 0.0 0.0 0.00 0.00 0.00 64 1008.2
20260509103008 13 0.0 0.0 0.00 0.00 0.00 63 1008.1
20260509102509 13 0.0 0.0 0.00 0.00 0.00 63 1008.1
20260509102006 13 0.0 0.0 0.00 0.00 0.00 62 1008.0
20260509101504 13 0.0 0.0 0.00 0.00 0.00 62 1008.0
20260509101002 13 0.0 0.0 0.00 0.00 0.00 62 1008.0
20260509100502 13 0.0 0.0 0.00 0.00 0.00 62 1007.8
20260509100111 13 0.0 0.0 0.00 0.00 0.00 62 1007.8
20260509095559 13 0.0 0.0 0.00 0.00 0.00 62 1007.6
20260509095510 13 0.0 0.0 0.00 0.00 0.00 61 1007.6
20260509095056 13 0.0 0.0 0.00 0.00 0.00 62 1007.4
20260509094556 13 0.0 0.0 0.00 0.00 0.00 62 1007.3
20260509094106 13 0.0 0.0 0.00 0.00 0.00 61 1007.4
20260509093553 13 0.0 0.0 0.00 0.00 0.00 62 1007.3
20260509093051 13 0.0 0.0 0.00 0.00 0.00 62 1007.4
20260509092551 13 0.0 0.0 0.00 0.00 0.00 62 1007.4
20260509092050 13 0.0 0.0 0.00 0.00 0.00 64 1007.3
20260509091549 13 0.0 0.0 0.00 0.00 0.00 63 1007.2
20260509091045 14 0.0 0.0 0.00 0.00 0.00 63 1007.1
20260509090546 14 0.0 0.0 0.00 0.00 0.00 61 1007.1
20260509090042 14 0.0 0.0 0.00 0.00 0.00 60 1007.3
20260509085541 14 0.0 0.0 0.00 0.00 0.00 58 1007.3
20260509085040 15 0.0 0.0 0.00 0.00 0.00 58 1007.5
20260509084543 15 0.0 0.0 0.00 0.00 0.00 58 1007.3
20260509084037 15 0.0 0.0 0.00 0.00 0.00 60 1007.5
20260509083538 15 0.0 0.0 0.00 0.00 0.00 59 1007.5
20260509083035 15 0.0 0.0 0.00 0.00 0.00 56 1007.4
20260509082532 16 0.0 0.0 0.00 0.00 0.00 54 1007.3
20260509082031 16 0.0 0.0 0.00 0.00 0.00 52 1007.3
20260509081529 16 0.0 0.0 0.00 0.00 0.00 51 1007.2
20260509081028 16 0.0 0.0 0.00 0.00 0.00 50 1007.1
20260509080527 16 0.0 0.0 0.00 0.00 0.00 51 1007.1
20260509080037 16 0.0 0.0 0.00 0.00 0.00 51 1006.9
20260509075524 16 0.0 0.0 0.00 0.00 0.00 53 1006.9
20260509075024 16 0.0 0.0 0.00 0.00 0.00 52 1006.9
20260509074521 16 0.0 0.0 0.00 0.00 0.00 52 1006.9
20260509074020 16 0.0 0.0 0.00 0.00 0.00 51 1006.9
20260509073517 17 0.0 0.0 0.00 0.00 0.00 47 1006.9
20260509073036 17 0.0 0.0 0.00 0.00 0.00 44 1006.8
20260509072515 17 0.0 0.0 0.00 0.00 0.00 45 1006.6
20260509072014 17 0.0 0.0 0.00 0.00 0.00 45 1006.4
20260509071512 17 0.0 0.0 0.00 0.00 0.00 45 1006.3
20260509071010 17 0.0 0.0 0.00 0.00 0.00 45 1006.3
20260509070511 17 0.0 0.0 0.00 0.00 0.00 44 1006.2
20260509070008 17 0.0 0.0 0.00 0.00 0.00 44 1006.2
20260509065510 17 0.0 0.0 0.00 0.00 0.00 44 1006.1
20260509065005 16 0.0 0.0 0.00 0.00 0.00 44 1006.1
20260509064504 16 0.0 0.0 0.00 0.00 0.00 45 1005.9
20260509064001 16 0.0 0.0 0.00 0.00 0.00 46 1005.8
20260509063601 16 0.0 0.0 0.00 0.00 0.00 45 1005.8
20260509063059 16 0.0 0.0 0.00 0.00 0.00 45 1005.8
20260509062557 16 0.0 0.0 0.00 0.00 0.00 45 1005.8
20260509062056 16 0.0 0.0 0.00 0.00 0.00 45 1005.7
20260509061558 16 0.0 0.0 0.00 0.00 0.00 46 1005.6
20260509061053 16 0.0 0.0 0.00 0.00 0.00 46 1005.5
20260509060552 16 0.0 0.0 0.00 0.00 0.00 46 1005.3